Temp
20 20 19 19 19 20 20 20 20 20 20 20 20 20 19 19 18 18 18 18 18 18 18 18 18 18 17 17 17 18 18 18 18 17 17 17 16 16 16 16 16 14 15
19 20 19 19 19 20 20 20 20 20 20 20 20 20 19 19 19 19 18 18 18 18 18 18 18 17 17 17 17 17 17 18 18 17 17 17 16 16 16 15 15 15 15
19 19 19 19 19 19 19 19 20 19 19 20 20 19 19 19 19 19 18 18 18 18 17 17 17 17 17 17 17 17 17 17 17 17 17 16 16 16 16 16 15 15 15
19 19 19 19 19 19 19 19 19 19 19 19 19 19 19 19 19 19 18 18 18 18 17 17 17 17 17 17 17 17 17 17 17 16 16 16 16 16 15 15 15 15 15
19 19 19 20 19 19 19 19 19 19 18 18 19 19 19 19 19 18 18 18 18 18 17 17 17 17 17 17 17 17 17 17 17 17 16 16 16 16 16 15 15 15 15
19 19 20 20 19 19 19 19 19 19 19 18 18 18 18 18 18 18 18 18 18 18 17 17 17 17 17 17 17 16 16 17 17 17 16 16 16 16 16 15 16 15 15
19 19 19 19 19 19 19 19 19 19 18 18 18 18 18 17 18 18 17 17 17 17 17 17 17 17 16 16 16 16 16 16 16 16 16 16 16 16 16 15 15 15 15
18 19 19 19 19 19 19 19 19 19 19 18 18 18 18 18 17 17 17 17 17 17 17 17 17 16 16 16 16 16 16 16 16 16 16 16 16 16 16 16 15 15 15
18 18 18 18 18 18 18 19 19 19 18 18 18 18 18 17 17 17 17 17 16 16 16 16 16 16 16 16 16 16 16 16 16 16 16 16 16 16 16 16 15 15 15
17 17 18 18 18 18 18 18 18 18 18 18 17 17 17 17 17 17 17 16 16 16 16 16 16 16 16 16 16 16 16 16 16 16 16 16 16 16 16 15 15 15 15
17 17 18 18 18 18 18 18 18 18 17 17 17 17 17 17 16 16 16 16 16 16 16 16 15 15 15 15 15 15 16 16 16 16 16 16 16 16 16 16 16 15 15
17 17 18 18 18 18 18 18 18 17 17 17 17 17 17 16 16 16 16 15 15 15 15 15 15 15 15 15 15 15 15 15 15 15 16 16 15 15 16 16 16 16 15
17 18 18 18 18 19 19 18 17 17 16 16 16 16 16 14 14 15 14 14 14 13 14 14 14 15 15 15 15 15 15 15 15 15 16 16 15 15 15 15 16 16 16
18 18 18 19 18 18 17 17 17 16 15 15 14 14 13 13 13 13 14 14 14 14 13 14 14 14 15 15 15 15 15 15 15 15 15 16 16 15 15 15 15 15 15
18 18 18 17 17 16 16 15 15 15 14 14 14 13 12 12 12 13 13 14 14 13 13 14 14 14 14 14 14 15 15 15 15 15 15 16 16 15 15 15 15 15 14
17 17 17 17 16 15 14 14 14 13 13 13 13 13 12 12 12 12 13 13 13 13 13 14 14 14 14 14 14 14 14 15 15 15 14 15 15 16 16 15 15 14 14
16 16 16 16 15 14 14 13 13 12 12 12 12 12 11 11 11 11 11 12 12 12 12 12 12 13 13 13 13 13 14 14 14 14 14 13 14 15 15 15 15 13 13
15 15 15 15 14 13 13 12 12 11 11 11 11 11 11 11 11 11 11 11 11 11 11 12 12 12 12 12 12 12 12 12 13 13 14 13 13 14 14 14 14 13 12
14 14 14 14 13 12 12 12 11 11 10 10 10 10 10 10 10 10 10 11 11 11 11 11 11 11 11 12 12 12 12 12 13 13 13 13 13 12 12 13 13 13 12
13 13 14 13 13 12 11 11 10 10 10 10 9 9 9 10 10 10 10 10 10 10 10 10 11 11 11 11 11 11 12 12 12 12 13 13 12 12 11 11 10 10 11
12 12 13 12 12 12 10 10 10 9 9 9 9 10 10 10 10 10 10 10 10 10 10 10 10 10 10 10 10 11 11 11 11 10 10 9 9 8 8 8 9 9 10
11 11 11 11 11 10 9 9 9 9 9 9 10 10 10 10 10 10 10 10 9 9 9 9 9 9 8 8 7 6 6 8 9 8 8 7 7 6 7 8 8 8 9
10 10 10 10 10 10 9 9 9 9 9 9 9 9 9 9 9 9 8 8 8 7 7 7 7 7 6 7 4 4 2 4 5 6 5 5 6 6 6 6 7 7 7
9 9 9 9 9 9 9 8 8 8 9 9 9 9 8 8 7 7 7 7 6 6 6 6 6 6 6 5 4 2 1 0 1 2 3 3 3 3 5 6 6 6 6
9 9 9 8 8 8 8 8 8 8 8 8 8 7 7 7 6 6 5 5 5 5 5 5 5 6 5 4 1 1 1 -1 0 0 0 1 1 1 1 4 3 4 5
8 8 8 8 7 8 8 8 8 7 7 7 7 6 6 5 4 4 4 4 3 4 4 4 4 3 3 1 0 -0 -1 -1 -1 -1 -2 -2 -1 0 1 1 2 2 3
Height
1544 1546 1548 1549 1550 1550 1551 1552 1552 1551 1551 1552 1553 1553 1554 1556 1557 1558 1558 1559 1560 1561 1562 1562 1563 1563 1564 1563 1562 1562 1562 1562 1561 1561 1562 1561 1562 1563 1563 1564 1564 1565 1565
1544 1545 1547 1548 1549 1550 1551 1551 1552 1553 1553 1553 1554 1554 1555 1556 1557 1558 1559 1560 1561 1562 1563 1563 1564 1564 1565 1564 1564 1563 1563 1563 1562 1562 1562 1562 1562 1563 1564 1565 1566 1566 1567
1540 1543 1545 1546 1548 1548 1550 1551 1551 1552 1554 1554 1555 1556 1556 1556 1557 1558 1559 1560 1561 1562 1563 1564 1564 1565 1565 1565 1564 1564 1564 1564 1564 1564 1563 1563 1562 1563 1563 1565 1566 1567 1568
1539 1541 1543 1546 1548 1550 1550 1550 1552 1554 1554 1555 1555 1556 1556 1557 1558 1558 1559 1559 1560 1562 1563 1564 1565 1565 1565 1565 1565 1565 1565 1565 1565 1564 1565 1565 1565 1564 1564 1565 1566 1568 1569
1541 1542 1544 1546 1547 1550 1550 1551 1551 1552 1553 1555 1555 1556 1557 1557 1558 1559 1559 1559 1560 1561 1563 1564 1564 1564 1565 1565 1565 1566 1565 1565 1565 1565 1565 1565 1566 1566 1565 1566 1566 1567 1568
1540 1542 1545 1546 1547 1549 1550 1551 1551 1552 1553 1554 1555 1555 1556 1557 1558 1558 1559 1560 1560 1561 1562 1563 1563 1564 1563 1564 1564 1565 1565 1565 1564 1565 1565 1565 1565 1566 1566 1566 1566 1567 1568
1542 1543 1545 1546 1547 1547 1548 1549 1550 1551 1552 1552 1554 1554 1555 1556 1556 1557 1557 1558 1559 1560 1561 1562 1562 1562 1562 1563 1564 1564 1564 1564 1564 1564 1564 1565 1565 1565 1565 1566 1566 1567 1567
1541 1543 1544 1545 1547 1547 1548 1549 1550 1551 1551 1552 1553 1554 1554 1554 1554 1555 1556 1556 1557 1558 1559 1560 1561 1561 1561 1561 1562 1562 1562 1563 1564 1564 1563 1563 1564 1564 1565 1564 1565 1566 1566
1539 1541 1543 1544 1545 1546 1547 1549 1550 1550 1550 1551 1551 1552 1552 1553 1553 1553 1553 1554 1554 1555 1556 1557 1558 1558 1558 1559 1559 1560 1560 1561 1561 1561 1562 1562 1562 1563 1563 1563 1563 1564 1564
1538 1540 1541 1543 1544 1545 1546 1547 1548 1548 1548 1548 1549 1549 1550 1550 1551 1551 1551 1551 1552 1553 1554 1555 1555 1556 1556 1556 1557 1557 1557 1558 1558 1558 1559 1560 1560 1560 1561 1561 1561 1561 1562
1538 1539 1540 1541 1542 1543 1544 1544 1545 1546 1546 1546 1546 1546 1547 1547 1548 1548 1548 1548 1549 1550 1550 1551 1552 1552 1553 1553 1553 1554 1554 1553 1554 1555 1555 1556 1557 1557 1557 1557 1557 1557 1557
1537 1538 1539 1540 1540 1541 1541 1542 1541 1542 1542 1542 1542 1543 1543 1544 1544 1545 1546 1546 1546 1547 1547 1548 1548 1549 1549 1551 1550 1550 1550 1550 1549 1550 1550 1551 1553 1553 1553 1553 1553 1553 1554
1536 1537 1538 1539 1540 1539 1539 1538 1538 1538 1539 1539 1539 1539 1539 1540 1541 1542 1542 1543 1543 1544 1544 1544 1545 1545 1546 1546 1547 1547 1548 1547 1547 1546 1546 1547 1547 1547 1547 1547 1548 1549 1550
1533 1534 1536 1538 1538 1537 1536 1535 1535 1535 1535 1536 1536 1536 1536 1537 1538 1539 1540 1540 1541 1541 1542 1542 1541 1542 1542 1542 1543 1543 1544 1544 1544 1543 1542 1542 1542 1542 1541 1541 1541 1543 1545
1530 1532 1533 1534 1535 1534 1533 1533 1532 1532 1532 1533 1533 1533 1534 1535 1536 1537 1537 1537 1537 1538 1539 1539 1538 1538 1538 1538 1539 1539 1539 1539 1539 1538 1537 1538 1537 1536 1536 1535 1535 1537 1539
1527 1529 1530 1530 1531 1531 1531 1531 1530 1530 1530 1530 1530 1531 1531 1531 1532 1533 1533 1534 1534 1534 1535 1535 1534 1534 1533 1534 1534 1534 1534 1533 1533 1532 1532 1531 1531 1530 1529 1529 1529 1530 1531
1524 1525 1526 1527 1528 1529 1528 1529 1528 1528 1529 1529 1528 1528 1529 1529 1529 1530 1530 1530 1531 1531 1531 1531 1531 1530 1530 1529 1530 1530 1529 1529 1528 1526 1525 1524 1524 1523 1523 1522 1522 1523 1524
1519 1521 1523 1525 1525 1526 1527 1527 1527 1527 1527 1528 1527 1528 1528 1527 1528 1527 1527 1527 1528 1528 1528 1527 1527 1526 1525 1525 1525 1524 1524 1523 1522 1520 1519 1518 1518 1517 1516 1516 1515 1515 1516
1516 1518 1520 1521 1522 1524 1525 1525 1526 1526 1526 1526 1526 1526 1526 1526 1526 1526 1525 1525 1525 1525 1525 1524 1523 1521 1521 1520 1520 1519 1518 1517 1516 1515 1514 1513 1511 1511 1511 1510 1509 1509 1510
1513 1514 1516 1518 1519 1521 1523 1524 1524 1524 1524 1525 1525 1525 1524 1524 1524 1523 1523 1523 1522 1522 1521 1520 1518 1517 1516 1515 1514 1515 1513 1512 1510 1509 1508 1506 1505 1504 1505 1503 1503 1504 1505
1509 1511 1513 1515 1516 1518 1520 1521 1522 1522 1523 1523 1523 1523 1523 1522 1522 1522 1521 1521 1520 1520 1519 1517 1516 1514 1512 1510 1510 1510 1510 1508 1506 1505 1504 1503 1500 1500 1501 1499 1499 1500 1499
1504 1506 1509 1511 1514 1516 1518 1520 1520 1520 1521 1522 1522 1522 1522 1521 1521 1520 1520 1520 1519 1518 1518 1516 1514 1511 1509 1506 1505 1504 1506 1507 1504 1503 1501 1501 1500 1500 1498 1497 1495 1496 1496
1498 1501 1504 1507 1509 1512 1515 1517 1518 1519 1520 1520 1521 1520 1520 1520 1520 1519 1518 1518 1516 1515 1514 1511 1508 1507 1506 1505 1502 1507 1506 1506 1502 1501 1501 1500 1497 1496 1495 1494 1492 1491 1491
1495 1496 1499 1502 1505 1508 1511 1514 1516 1517 1518 1518 1519 1519 1519 1518 1518 1518 1516 1515 1513 1512 1511 1508 1506 1504 1503 1502 1505 1506 1506 1505 1503 1499 1500 1499 1494 1492 1491 1492 1489 1487 1486
1488 1493 1495 1499 1502 1505 1508 1511 1513 1515 1516 1517 1517 1517 1517 1517 1517 1516 1514 1513 1512 1511 1509 1507 1505 1502 1500 1499 1501 1503 1504 1503 1501 1499 1494 1494 1493 1492 1489 1487 1485 1484 1482
1482 1486 1489 1494 1498 1502 1505 1508 1510 1512 1514 1515 1515 1515 1516 1516 1515 1514 1513 1513 1511 1510 1509 1506 1505 1503 1502 1502 1502 1499 1500 1499 1499 1497 1493 1490 1489 1488 1487 1485 1480 1479 1478
Wind_Speed
15 15 14 12 11 10 10 8 6 7 9 10 11 12 13 12 11 9 8 9 10 8 8 6 4 3 4 5 5 7 8 9 9 9 9 9 9 8 8 8 8 9 9
16 16 15 13 12 11 9 8 7 6 7 9 9 10 11 10 9 8 8 9 8 8 7 6 4 3 4 4 4 6 7 8 8 7 8 9 9 8 7 7 7 7 8
19 18 16 14 12 11 10 9 8 7 7 7 8 8 9 8 7 7 7 7 7 6 6 5 3 2 3 2 3 4 6 7 7 7 6 7 8 8 7 7 6 6 6
19 17 15 14 12 11 10 10 9 7 7 7 7 7 7 6 6 6 5 5 5 5 5 4 2 1 1 0 1 2 4 5 5 6 6 6 6 5 6 5 5 4 5
15 15 14 13 12 11 11 10 11 10 9 8 7 6 5 5 5 5 5 4 4 4 4 3 2 2 1 1 1 1 1 2 2 2 3 2 2 2 2 3 4 4 4
16 15 13 12 11 11 11 11 11 10 10 8 7 7 6 5 5 5 4 4 4 3 4 4 3 3 3 3 3 4 3 3 2 1 1 0 0 1 1 1 3 4 5
12 12 12 12 11 12 12 12 12 10 10 10 9 8 8 7 7 6 5 4 4 4 4 4 4 4 5 5 6 6 6 6 5 5 4 4 4 4 4 4 4 5 6
14 14 13 12 12 11 11 11 11 11 10 10 9 10 10 10 9 8 8 8 8 7 7 7 6 6 6 6 7 8 9 9 9 9 8 8 7 7 9 8 8 7 6
13 12 12 11 11 11 11 11 11 11 11 11 11 11 11 11 11 11 11 11 11 10 10 9 9 9 10 10 10 9 10 11 13 12 12 12 10 10 9 8 9 11 9
11 10 9 8 7 7 9 10 12 13 13 13 14 14 14 13 13 13 12 12 12 12 12 12 12 12 12 13 13 12 13 13 14 15 14 14 13 13 13 15 15 13 14
12 10 8 6 5 5 7 8 10 11 13 15 15 16 16 16 15 14 14 14 14 14 13 13 14 14 15 15 14 14 16 17 17 18 19 16 14 15 16 17 17 16 16
13 11 8 6 5 6 8 11 12 14 15 17 17 17 15 15 16 15 15 14 14 13 13 13 14 14 15 15 15 16 18 17 19 19 21 19 18 18 19 20 21 21 20
13 10 7 5 7 11 13 14 15 15 16 16 15 13 14 13 13 12 12 12 10 11 10 11 14 15 13 13 14 14 16 18 19 21 21 19 20 23 24 23 22 24 24
13 10 8 8 10 12 13 12 12 12 12 13 12 11 10 8 10 12 13 12 12 14 12 11 13 16 13 12 13 13 14 15 17 19 20 18 20 20 25 27 26 24 26
14 12 10 8 8 9 8 8 8 8 8 8 9 9 8 9 9 12 12 13 13 15 16 16 15 14 14 14 14 15 16 19 21 21 22 20 20 21 23 24 27 27 26
15 12 8 5 6 6 6 5 5 4 4 5 5 6 8 10 11 12 13 15 16 15 16 16 16 16 18 20 22 23 23 24 27 29 27 25 23 23 23 24 26 25 25
15 11 6 6 5 5 5 4 4 3 3 3 3 3 3 4 6 9 10 12 13 13 15 15 17 19 20 22 25 26 26 25 25 27 29 28 26 25 24 25 25 24 24
17 11 9 8 5 5 5 5 3 2 2 1 0 0 1 2 3 4 6 7 9 11 12 14 15 17 18 20 21 21 21 22 23 24 24 26 26 27 26 25 25 26 24
16 13 12 9 6 6 6 5 4 2 2 1 1 0 1 2 2 3 4 6 7 9 11 12 14 16 17 18 19 19 19 19 21 21 22 24 24 25 26 27 27 26 25
19 17 15 10 9 7 7 6 5 4 3 1 1 3 4 5 6 7 8 9 10 12 13 14 16 17 20 21 22 21 20 19 18 19 21 21 22 21 22 23 22 20 17
23 20 16 13 11 10 9 8 7 5 3 1 1 2 4 5 6 7 8 9 10 11 13 14 14 16 17 19 19 17 15 16 13 14 14 13 12 13 13 14 15 15 15
25 22 18 16 14 13 12 10 9 7 5 3 1 1 3 4 5 7 8 9 9 10 11 12 12 12 13 16 15 14 7 9 9 10 10 10 10 9 10 12 11 12 14
28 23 20 18 16 15 14 13 10 8 6 3 1 2 3 4 5 6 6 7 8 9 11 14 16 17 16 15 15 8 5 3 14 9 7 9 12 12 9 9 10 9 10
29 25 21 19 18 17 16 14 11 8 6 4 2 1 3 4 5 6 8 10 13 14 15 16 17 17 17 16 11 9 7 9 4 10 9 12 18 15 17 15 16 14 13
31 26 22 21 20 19 17 15 13 11 9 6 3 3 2 3 5 8 10 12 13 14 14 15 15 15 15 14 13 12 10 8 10 12 17 15 24 20 18 19 21 17 17
33 29 25 24 23 21 19 16 14 11 9 7 5 4 3 5 7 9 11 11 12 13 14 15 16 15 14 12 10 9 8 9 11 11 17 19 20 17 20 10 17 19 19
Wind_Direction
172 171 167 164 162 162 162 150 125 111 102 111 130 139 146 151 151 149 147 148 152 151 152 152 143 114 87 87 77 62 57 53 53 64 78 83 91 94 95 100 99 109 113
174 174 172 173 170 167 170 162 147 125 109 105 120 132 140 149 152 155 152 151 152 151 156 152 138 116 93 82 66 60 55 54 54 65 85 92 95 92 94 107 111 117 113
173 175 176 174 171 166 169 167 164 149 131 116 114 125 135 142 146 149 150 151 153 157 156 147 133 117 101 83 50 49 52 54 56 66 81 98 105 99 91 102 116 120 127
173 175 177 178 177 176 171 171 170 164 151 142 132 129 131 134 140 145 152 157 160 164 163 164 167 168 137 102 23 39 44 50 55 72 82 83 100 111 98 108 122 137 151
169 174 179 180 180 183 179 179 181 178 167 160 157 149 143 145 151 160 168 171 175 177 186 197 213 227 252 245 253 288 341 27 41 54 76 53 108 75 105 132 144 155 174
177 177 180 182 182 183 186 191 191 190 187 188 182 172 175 176 176 180 187 192 195 203 212 223 232 248 257 254 249 256 268 289 310 300 285 275 246 162 240 240 195 183 187
190 189 189 189 187 191 194 197 197 196 201 203 206 205 202 205 206 208 212 218 224 230 233 238 241 246 260 262 262 264 265 266 270 274 269 262 261 250 276 272 253 218 206
196 203 204 201 203 205 207 210 212 215 218 219 221 224 226 225 222 225 229 232 234 236 240 244 248 249 254 264 266 264 267 269 270 270 270 265 254 262 266 247 244 238 228
182 187 195 202 209 216 222 228 230 232 233 233 233 233 233 232 231 230 231 235 239 242 246 248 251 251 252 255 259 262 263 270 272 268 267 266 264 253 248 241 245 249 241
175 177 184 194 206 226 237 241 244 241 241 239 240 241 241 240 239 239 240 242 248 251 253 255 256 256 257 259 259 260 264 262 265 272 269 266 262 259 250 248 252 257 241
180 181 182 189 204 230 248 253 252 251 250 247 243 241 242 243 243 244 244 245 248 253 254 255 258 260 261 262 263 262 259 261 263 264 267 263 265 262 258 252 250 251 240
183 182 183 198 222 249 261 263 257 252 249 249 248 246 245 244 244 247 250 252 254 258 263 264 263 264 267 269 270 269 268 267 266 265 263 264 262 264 265 260 254 248 243
189 192 202 237 281 288 282 273 264 257 254 253 248 240 242 242 242 247 249 251 254 258 263 272 278 280 277 274 277 279 281 283 281 279 277 273 264 258 256 255 255 254 252
199 211 233 260 273 280 276 272 265 260 257 257 259 254 245 237 238 245 247 254 259 266 269 267 282 285 279 278 280 285 291 293 292 291 288 281 272 267 263 257 254 253 255
206 215 231 248 291 287 274 266 261 262 261 258 255 255 245 240 243 249 254 259 264 275 277 274 274 277 281 280 282 284 287 289 293 288 286 284 278 271 262 261 257 253 253
209 215 225 265 283 278 277 264 254 247 249 247 247 248 244 242 236 240 248 256 263 260 261 269 266 271 273 279 282 286 286 289 288 289 287 281 273 270 267 261 256 256 252
212 216 223 252 262 266 269 266 255 240 229 233 234 236 242 245 249 253 259 263 271 278 280 282 284 284 282 286 282 283 283 283 284 284 280 279 274 267 263 261 258 255 253
214 210 218 227 232 237 248 248 235 211 194 202 153 281 286 283 278 280 285 293 296 298 297 296 294 294 293 290 289 289 288 283 282 280 282 277 272 268 266 263 262 257 250
209 208 216 219 219 222 230 231 228 216 193 174 135 83 340 332 319 309 308 308 308 308 309 309 311 308 306 304 303 304 301 294 288 282 281 281 275 268 265 264 264 266 264
207 209 213 209 216 222 221 220 212 202 202 203 335 346 354 352 350 343 338 331 324 319 316 313 312 310 309 307 307 306 306 304 296 284 275 275 273 268 263 264 269 266 263
206 206 207 208 213 218 218 212 201 199 190 164 37 10 8 5 358 351 344 338 333 328 324 320 316 313 311 307 309 302 296 295 291 284 283 282 272 264 262 264 264 263 252
206 204 202 204 211 210 205 209 199 193 186 182 163 33 7 2 358 352 345 338 334 327 320 318 318 321 324 332 336 342 346 312 274 291 283 281 274 269 263 262 264 260 247
202 202 201 206 210 206 203 203 203 197 194 192 159 50 30 20 12 6 2 357 355 352 353 355 353 350 348 346 341 345 345 308 312 287 299 286 276 276 276 286 278 277 273
202 199 201 204 206 203 198 200 200 204 205 195 170 80 49 35 27 22 20 18 17 17 14 9 4 358 355 350 347 328 288 282 297 296 286 310 296 305 298 291 292 294 287
202 201 199 199 197 195 195 195 201 207 201 193 169 115 80 55 40 35 34 31 28 27 24 20 16 12 9 3 357 348 332 321 275 283 307 289 294 306 300 303 294 292 285
201 200 198 195 192 191 192 194 194 196 198 186 168 139 96 58 46 38 36 32 32 29 23 21 22 23 23 18 7 358 338 332 314 303 300 305 312 321 322 322 297 290 281